Location: Zagreb
(45.8150°N, 15.9819°E)
Time: 10:17:39
(UTC+02:00)

BlueWalker 3 - Visible Passes

Search period start: 08 May 2026 00:00
Search period end: 18 May 2026 00:00
Orbit: 448 x 458 km, 53.2° (Epoch: 7 May)

Date Brightness Start Highest point End Pass type
(mag) Time Alt. Az. Time Alt. Az. Time Alt. Az.
8 May 3.8 02:44:01 18° ESE 02:44:01 18° ESE 02:45:45 10° E visible
8 May 1.9 04:17:39 18° WSW 04:20:08 66° NNW 04:23:41 10° NE visible
9 May 4.6 02:08:28 11° E 02:08:28 11° E 02:08:37 10° E visible
9 May 1.6 03:42:05 37° WSW 03:43:23 83° NNW 03:46:57 10° ENE visible
10 May 1.5 03:06:29 75° S 03:06:38 77° SE 03:10:11 10° ENE visible
10 May 3.3 04:41:08 10° WNW 04:44:19 30° NNW 04:47:30 10° NE visible
11 May 2.6 02:30:49 42° E 02:30:49 42° E 02:33:24 10° ENE visible
11 May 3.1 04:04:26 11° W 04:07:28 34° NNW 04:10:44 10° NE visible
12 May 3.8 01:55:06 22° ENE 01:55:06 22° ENE 01:56:34 10° ENE visible
12 May 2.8 03:28:44 21° WNW 03:30:37 39° NNW 03:33:59 10° NE visible
13 May 4.5 01:19:21 12° ENE 01:19:21 12° ENE 01:19:41 10° ENE visible
13 May 2.5 02:52:58 38° WNW 02:53:47 46° NNW 02:57:13 10° NE visible
13 May 3.8 04:28:49 10° WNW 04:31:47 24° N 04:34:44 10° NE visible
14 May 2.3 02:17:08 55° NNW 02:17:08 55° NNW 02:20:27 10° NE visible
14 May 3.8 03:51:53 10° WNW 03:54:53 25° N 03:57:52 10° NE visible
15 May 2.9 01:41:16 39° NE 01:41:16 39° NE 01:43:41 10° NE visible
15 May 3.7 03:14:55 10° WNW 03:17:58 26° N 03:21:02 10° NE visible
16 May 3.7 01:05:19 24° ENE 01:05:19 24° ENE 01:06:53 10° ENE visible
16 May 3.6 02:38:55 16° WNW 02:41:04 28° NNW 02:44:11 10° NE visible
16 May 3.9 04:16:10 10° NW 04:19:12 26° N 04:22:14 10° ENE visible
17 May 4.2 00:29:17 16° ENE 00:29:17 16° ENE 00:30:03 10° ENE visible
17 May 3.4 02:02:52 24° NW 02:04:09 31° NNW 02:07:22 10° NE visible
17 May 4.0 03:39:18 10° NW 03:42:16 24° N 03:45:15 10° ENE visible
17 May 4.5 23:53:06 11° ENE 23:53:06 11° ENE 23:53:12 10° ENE visible
